EST,Max TemperatureF,Mean TemperatureF,Min TemperatureF,Max Dew PointF,MeanDew PointF,Min DewpointF,Max Humidity, Mean Humidity, Min Humidity, Max Sea Level PressureIn, Mean Sea Level PressureIn, Min Sea Level PressureIn, Max VisibilityMiles, Mean VisibilityMiles, Min VisibilityMiles, Max Wind SpeedMPH, Mean Wind SpeedMPH, Max Gust SpeedMPH,PrecipitationIn, CloudCover, Events, WindDirDegrees
2012-12-1,57,46,35,47,39,33,100,83,66,30.25,30.15,30.00,10,4,0,22,10,32,T,7,Fog,148
2012-12-2,58,48,37,55,46,37,100,81,62,30.13,30.01,29.91,10,4,0,17,9,23,0.13,6,Fog-Rain,251
2012-12-3,63,50,37,58,50,37,100,86,72,30.12,30.04,29.90,10,3,0,26,5,36,0.00,7,Fog,160
2012-12-4,63,51,38,55,46,29,100,79,58,30.16,29.99,29.90,10,7,2,22,12,35,0.45,6,Rain,267
2012-12-5,39,31,23,28,20,17,81,65,48,30.43,30.36,30.19,10,10,1,14,6,21,0.00,0,,350
2012-12-6,39,32,24,31,25,19,82,71,59,30.33,30.15,29.97,10,10,10,16,7,20,0.00,1,,156
2012-12-7,44,41,37,41,39,31,96,85,73,29.98,29.93,29.89,10,4,2,8,3,10,0.08,8,Rain,141
2012-12-8,42,37,32,40,34,27,96,87,78,30.18,30.03,29.89,10,7,2,13,6,17,0.13,8,Rain,32
2012-12-9,38,35,32,38,33,27,100,88,75,30.18,29.92,29.64,10,6,0,17,7,24,0.13,8,Fog-Rain,92
2012-12-10,40,35,29,40,31,19,100,82,63,29.89,29.70,29.60,10,9,0,18,7,26,0.00,8,Fog,298
2012-12-11,36,29,21,27,21,18,92,73,54,30.16,30.01,29.87,10,9,1,20,4,24,T,5,Snow,228
2012-12-12,42,34,25,23,21,20,81,62,43,30.38,30.31,30.17,10,10,9,16,9,21,0.00,0,,214
2012-12-13,46,37,28,25,23,20,75,55,34,30.37,30.29,30.17,10,10,10,20,8,26,0.00,0,,198
2012-12-14,50,40,30,30,26,23,82,62,42,30.25,30.20,30.17,10,10,10,10,5,14,0.00,0,,185
2012-12-15,46,39,31,43,34,27,92,81,70,30.15,29.88,29.67,10,7,3,21,8,26,0.09,6,Rain,141
2012-12-16,51,46,40,47,43,37,96,85,74,29.69,29.63,29.59,10,8,5,18,8,24,0.01,8,,228
2012-12-17,40,38,36,37,34,30,92,84,76,29.74,29.69,29.64,10,10,6,13,5,17,0.00,8,,281
2012-12-18,39,34,29,34,29,25,92,76,59,29.81,29.72,29.64,10,7,2,12,6,15,0.03,6,Snow,257
2012-12-19,43,39,34,34,32,28,92,77,62,30.12,29.96,29.73,10,6,2,12,2,15,0.00,6,,304
2012-12-20,48,40,32,45,36,29,93,82,70,30.00,29.50,29.12,10,6,2,29,15,36,0.50,8,Rain,135
2012-12-21,33,32,30,31,27,22,92,79,66,29.95,29.44,29.14,10,5,1,25,12,40,0.06,8,Snow,305
2012-12-22,36,30,23,22,20,18,88,70,52,30.11,30.05,29.95,10,10,9,22,13,35,0.00,4,,285
2012-12-23,35,27,18,23,19,15,84,73,61,30.05,29.98,29.92,10,10,8,13,5,16,0.00,3,,317
2012-12-24,31,25,19,27,23,16,92,82,72,30.03,29.90,29.79,10,7,0,12,4,17,0.06,6,Fog-Snow,33
2012-12-25,33,25,17,23,19,17,91,74,56,30.33,30.23,30.05,10,10,7,15,5,20,0.00,5,,13
2012-12-26,29,27,24,25,22,19,92,81,69,30.25,29.97,29.85,10,5,0,20,12,29,0.21,8,Fog-Snow,25
2012-12-27,32,22,12,20,18,9,88,76,63,30.18,30.08,29.94,10,10,7,16,7,23,T,5,,332
2012-12-28,29,19,9,25,20,6,92,85,78,30.20,30.08,29.94,10,7,0,12,2,14,0.03,7,Fog-Snow,113
2012-12-29,29,24,19,23,22,16,92,85,78,30.11,29.90,29.81,10,5,1,9,5,14,0.04,7,Snow,347
2012-12-30,28,22,16,25,19,12,92,80,68,30.33,30.23,30.06,10,7,2,18,7,26,0.01,6,Snow,246
2012-12-31,34,28,22,27,21,16,85,76,66,30.17,30.02,29.95,10,9,5,18,10,24,0.00,5,,251